Regional Weather Roundup
Issued by NWS

Home | Current Version | Previous Version | Graphics & Text | Print | Product List | Glossary On
Versions: 1 2 3 4 5 6 7 8 9 10 11 12 13 14 15 16 17 18 19 20 21 22 23 24 25 26 27 28 29 30 31 32 33 34 35 36 37 38 39 40 41 42 43 44 45 46 47 48 49 50
094
ASUS45 KBOI 301310
RWRID

IDAHO REGIONAL WEATHER ROUNDUP
NATIONAL WEATHER SERVICE BOISE ID
700 AM MDT SAT APR 30 2016

NOTE: "FAIR" INDICATES FEW OR NO CLOUDS BELOW 12000 FEET
WITH NO SIGNIFICANT WEATHER AND/OR OBSTRUCTIONS TO VISIBILITY

IDZ012-014-301400-
SOUTHWEST IDAHO


CITY           SKY/WX    TMP DP  RH WIND       PRES   REMARKS
BOISE          CLEAR     43  36  76 NW15      30.01R
CALDWELL       CLEAR     43  38  82 W10       30.06R
MOUNTAIN HOME  CLEAR     40  37  88 NW15      29.99R WCI  32
$$

IDZ016-017-301400-
SOUTHCENTRAL IDAHO


CITY           SKY/WX    TMP DP  RH WIND       PRES   REMARKS
BURLEY         CLOUDY    40  36  86 W12G20    29.98R WCI  33
JEROME         CLOUDY    38  37  97 S7        30.00R WCI  33
TWIN FALLS     CLOUDY    39  35  86 SW13      30.01R WCI  31
$$

IDZ019>023-301400-
SOUTHEAST IDAHO


CITY           SKY/WX    TMP DP  RH WIND       PRES   REMARKS
IDAHO FALLS    CLEAR     31  30  96 N3        29.97R
POCATELLO      MOCLDY    37  36  96 S5        29.97R WCI  33
REXBURG        MOCLDY    34  31  88 CALM      29.97R
$$

IDZ006-010-011-018-031-032-301400-
CENTRAL IDAHO MOUNTAINS


CITY           SKY/WX    TMP DP  RH WIND       PRES   REMARKS
MCCALL         CLOUDY    36  33  89 CALM      30.05R
HAILEY         MOCLDY    36  32  87 W8        30.01R WCI  29
STANLEY          N/A     31  27  85 CALM      30.05R
SALMON         CLOUDY    37  34  87 CALM      30.06R
CHALLIS        CLOUDY    38  28  67 W3        30.04R
$$

IDZ002-004-006-007-026-301400-
NORTHERN IDAHO


CITY           SKY/WX    TMP DP  RH WIND       PRES   REMARKS
LEWISTON       LGT RAIN  49  46  90 E6        30.15R
LOWELL           N/A     45  43  93 CALM      30.17R
COEUR D`ALENE  MOCLDY    45  43  93 CALM      30.13R
MULLAN PASS    MOCLDY    31  30  96 CALM      30.11R
$$




USA.gov is the U.S. government's official web portal to all federal, state and local government web resources and services.